[[[{"header":{"parameterUnit":"kt","parameterCategory":2,"dx":1,"dy":1,"la1":30.253999710083008,"la2":30.299108505249023,"lo1":-89.0895004272461,"lo2":-89.04439544677734,"nx":28,"ny":28,"refTime":"2022-10-22T21:00:00:Z","depth":0,"parameterNumber":1,"parameterNumberName":"U-component_of_WINDS"},"data":[-3.3067,-3.3192,-3.325,-3.3421,-3.3502,-3.363,-3.3695,-3.3785,-3.3873,-3.4035,-3.4139,-3.4213,-3.4327,-3.4468,-3.4586,-3.4617,-3.4663,-3.4663,-3.47,-3.4643,-3.4639,-3.4635,-3.4608,-3.4672,-3.4672,-3.4751,-3.4752,-3.4752,-3.3016,-3.3097,-3.3204,-3.3348,-3.3441,-3.3476,-3.3595,-3.3671,-3.3786,-3.3895,-3.4001,-3.415,-3.4276,-3.4394,-3.4526,-3.4589,-3.4615,-3.462,-3.4617,-3.4635,-3.4575,-3.4546,-3.4597,-3.4597,-3.4597,-3.4597,-3.4597,-3.4597,-3.2939,-3.3012,-3.3133,-3.3251,-3.334,-3.3437,-3.3519,-3.3608,-3.3716,-3.386,-3.3912,-3.4045,-3.4168,-3.436,-3.444,-3.4547,-3.4552,-3.4579,-3.4586,-3.4591,-3.4587,-3.4463,-3.4573,-3.4573,-3.4573,-3.4573,-3.4573,0,-3.2901,-3.2945,-3.3053,-3.3178,-3.3268,-3.3372,-3.3478,-3.3531,-3.3649,-3.3734,-3.3863,-3.3948,-3.4118,-3.4248,-3.4387,-3.4467,-3.4516,-3.4528,-3.4547,-3.4522,-3.4481,-3.4504,-3.4404,-3.4525,-3.4525,-3.4524,-3.4524,-3.4524,-3.2828,-3.2907,-3.3064,-3.3132,-3.3205,-3.3314,-3.3392,-3.349,-3.3569,-3.3717,-3.3778,-3.391,-3.402,-3.422,-3.4329,-3.4457,-3.4482,-3.4521,-3.4502,-3.4474,-3.4483,-3.4477,-3.4486,-3.4523,-3.4523,-3.4523,-3.4523,0,-3.2781,-3.2879,-3.3021,-3.3171,-3.3211,-3.3289,-3.3419,-3.3498,-3.3578,-3.3699,-3.3733,-3.386,-3.3987,-3.409,-3.4258,-3.4308,-3.4442,-3.4464,-3.4399,-3.4409,-3.4454,-3.4448,-3.4584,-3.4607,-3.4542,-3.4543,-3.4543,0,-3.2758,-3.2859,-3.2999,-3.3076,-3.3192,-3.3289,-3.3401,-3.3481,-3.359,-3.3686,-3.3756,-3.3846,-3.3964,-3.4069,-3.4144,-3.4272,-3.4304,-3.4351,-3.4369,-3.4344,-3.4338,-3.439,-3.4386,-3.4409,-3.4408,-3.4408,-3.4407,0,-3.2674,-3.2869,-3.2995,-3.3056,-3.3227,-3.3285,-3.336,-3.3483,-3.3559,-3.3676,-3.3727,-3.3857,-3.3928,-3.4028,-3.4122,-3.4105,-3.4282,-3.4279,-3.433,-3.4327,-3.4364,-3.436,-3.4454,-3.4406,-3.4406,-3.4406,-3.4405,0,-3.2672,-3.2784,-3.2953,-3.3097,-3.3145,-3.323,-3.3362,-3.3458,-3.3583,-3.3635,-3.3729,-3.3789,-3.3909,-3.3898,-3.4067,-3.4018,-3.4084,-3.414,-3.4146,-3.4163,-3.4148,-3.4186,-3.4265,-3.4277,-3.4178,-3.4176,-3.4175,0,-3.2549,-3.2746,-3.2831,-3.299,-3.3096,-3.3167,-3.3264,-3.3372,-3.3449,-3.3552,-3.3639,-3.3756,-3.3769,-3.3821,-3.3891,-3.3986,-3.405,-3.398,-3.413,-3.4134,-3.4093,-3.4167,-3.4152,-3.4236,-3.4152,-3.4155,-3.4156,0,-3.2467,-3.2674,-3.2696,-3.2769,-3.2927,-3.3017,-3.3127,-3.3264,-3.3327,-3.3443,-3.3539,-3.3707,-3.3724,-3.3809,-3.3873,-3.394,-3.4009,-3.395,-3.3955,-3.3957,-3.415,-3.4135,-3.4149,-3.4038,-3.4041,-3.4043,-3.4138,0,-3.2439,-3.2551,-3.2617,-3.2776,-3.2862,-3.2968,-3.3076,-3.3152,-3.3204,-3.3283,-3.3427,-3.3547,-3.3689,-3.3732,-3.3785,-3.3905,-3.3902,-3.3919,-3.3917,-3.3964,-3.3998,-3.4012,-3.3856,-3.3857,-3.3857,-3.3858,0,0,-3.2298,-3.2461,-3.2551,-3.2661,-3.2739,-3.2812,-3.2916,-3.3002,-3.3172,-3.3225,-3.3224,-3.3478,-3.3575,-3.374,-3.3763,-3.3821,-3.3853,-3.3832,-3.3941,-3.3949,-3.3958,-3.3992,-3.4005,-3.3859,-3.3859,-3.3859,-3.3859,0,-3.231,-3.2403,-3.2504,-3.2595,-3.2734,-3.2813,-3.2837,-3.2988,-3.3044,-3.3186,-3.3247,-3.3347,-3.3549,-3.3643,-3.3718,-3.3815,-3.3856,-3.385,-3.3865,-3.3942,-3.395,-3.3957,-3.3992,-3.4003,-3.386,-3.386,-3.386,0,-3.2249,-3.2358,-3.2418,-3.2598,-3.269,-3.2798,-3.2821,-3.2934,-3.3016,-3.3094,-3.3234,-3.3316,-3.3453,-3.3594,-3.3661,-3.3663,-3.3853,-3.3814,-3.3814,-3.3824,-3.3904,-3.3913,-3.3921,-3.3809,-3.3809,-3.3808,0,0,-3.2245,-3.235,-3.25,-3.2609,-3.2662,-3.2782,-3.2851,-3.2909,-3.3029,-3.3076,-3.3182,-3.3297,-3.3416,-3.3492,-3.3609,-3.3748,-3.3785,-3.3802,-3.3805,-3.3807,-3.3817,-3.3897,-3.3907,-3.3806,-3.3806,-3.3806,0,0,-3.2244,-3.2421,-3.2451,-3.2591,-3.2701,-3.2858,-3.2921,-3.2963,-3.3079,-3.3079,-3.3186,-3.3222,-3.3356,-3.3435,-3.3389,-3.361,-3.3605,-3.3619,-3.3554,-3.3558,-3.3561,-3.354,-3.3431,0,0,0,0,0,-3.2313,-3.2399,-3.2424,-3.2464,-3.2693,-3.2843,-3.2873,-3.2962,-3.2956,-3.3004,-3.3099,-3.3139,-3.3432,-3.3394,-3.3433,-3.3483,-3.3774,-3.378,-3.3785,-3.3735,-3.3739,-3.3742,0,0,0,0,0,0,-3.2329,-3.2377,-3.2422,-3.2581,-3.2633,-3.2841,-3.285,-3.2877,-3.2953,-3.2958,-3.3119,-3.3144,-3.3224,-3.338,-3.3414,-3.346,-3.342,-3.3776,-3.3781,-3.3785,-3.3736,-3.3739,-3.3742,0,0,0,0,0,-3.2342,-3.2381,-3.2724,-3.2581,-3.2626,-3.2765,-3.2847,-3.287,-3.2931,-3.3078,-3.3104,-3.2991,-3.3223,-3.3258,-3.3401,-3.3442,-3.3397,-3.3409,-3.3779,-3.3783,-3.3787,-3.3738,0,0,0,0,0,0,-3.2352,-3.2404,-3.2736,-3.2753,-3.2554,-3.2755,-3.2789,-3.2863,-3.3048,-3.3074,-3.2955,-3.2957,-3.3224,-3.3251,-3.3277,-3.3431,-3.3378,-3.3391,-3.3399,-3.3782,-3.3785,-3.3788,0,0,0,0,0,0,-3.2384,-3.2418,-3.2745,-3.2706,-3.272,-3.2745,-3.2776,-3.2911,-3.3049,-3.2914,-3.2922,-3.2953,-3.3185,-3.3246,-3.3266,-3.3473,-3.3364,-3.3376,-3.3384,-3.339,-3.3785,-3.3787,0,0,0,0,0,0,-3.24,-3.2429,-3.2702,-3.2713,-3.2725,-3.2926,-3.2866,-3.3097,-3.3013,-3.2905,-3.3008,-3.3006,-3.3179,-3.3202,-3.3259,-3.3456,-3.3469,-3.3364,-3.3373,-3.3378,-3.3382,0,0,0,0,0,0,0,-3.2413,-3.2194,-3.2633,-3.2718,-3.2729,-3.2913,-3.2917,-3.2922,-3.3013,-3.3011,-3.3009,-3.3007,-3.3296,-3.3309,-3.3322,-3.3443,0,0,-3.3363,-3.3369,0,0,0,0,0,0,0,0,-3.2183,-3.2191,-3.2633,-3.2637,-3.264,-3.2913,-3.2917,-3.2921,-3.3012,-3.3011,-3.3009,-3.3008,-3.3299,-3.331,-3.3321,0,0,0,0,0,0,0,0,0,0,0,0,0,0,0,-3.2634,-3.2636,0,-3.2914,-3.2917,-3.292,-3.3012,-3.3011,-3.301,-3.3008,-3.3302,-3.3311,-3.332,0,0,0,0,0,0,0,0,0,0,0,0,0,0,0,0,0,0,0,0,0,0,0,0,0,0,0,0,0,0,0,0,0,0,0,0,0,0,0,0,0,0,0,0,0,0,0,0,0,0,0,0,0,0,0,0,0,0,0,0,0,0,0,0,0,0,0,0,0]}],[{"header":{"parameterUnit":"kt","parameterCategory":2,"dx":1,"dy":1,"la1":30.253999710083008,"la2":30.299108505249023,"lo1":-89.0895004272461,"lo2":-89.04439544677734,"nx":28,"ny":28,"refTime":"2022-10-22T21:00:00:Z","depth":0,"parameterNumber":2,"parameterNumberName":"V-component_of_WINDS"},"data":[9.6135,9.625,9.6255,9.6387,9.6414,9.6503,9.6537,9.658,9.6615,9.672,9.6781,9.6796,9.6831,9.6903,9.6967,9.6971,9.6996,9.7034,9.7032,9.6865,9.6842,9.682,9.6793,9.704,9.7041,9.7202,9.7204,9.7205,9.6012,9.604,9.6113,9.6185,9.6246,9.6214,9.6268,9.632,9.6401,9.6445,9.6505,9.6598,9.667,9.6692,9.6762,9.6812,9.6798,9.683,9.6824,9.6829,9.6652,9.6624,9.684,9.6839,9.6839,9.6839,9.6839,9.6839,9.5788,9.5857,9.5904,9.5982,9.602,9.6068,9.6133,9.6151,9.6219,9.6295,9.6286,9.6376,9.6419,9.6503,9.6532,9.66,9.6565,9.6599,9.6607,9.6615,9.6623,9.6385,9.6613,9.6612,9.6611,9.6611,9.6611,0,9.5624,9.5624,9.5694,9.5765,9.5822,9.5877,9.5927,9.5968,9.5965,9.6022,9.6103,9.615,9.6242,9.6317,9.6383,9.6405,9.6372,9.637,9.6393,9.6396,9.6392,9.6392,9.61,9.6362,9.636,9.6359,9.6357,9.6357,9.5396,9.5476,9.5528,9.5576,9.5605,9.5683,9.5729,9.5721,9.577,9.583,9.5889,9.5965,9.6025,9.6153,9.6168,9.6235,9.6219,9.6318,9.6228,9.623,9.6216,9.621,9.6216,9.6334,9.6337,9.6339,9.6341,0,9.5265,9.5273,9.5399,9.5442,9.5455,9.5539,9.5573,9.5641,9.5649,9.5742,9.5763,9.5776,9.5854,9.5854,9.5943,9.5939,9.6072,9.6057,9.6057,9.6052,9.6138,9.6129,9.6425,9.6462,9.6209,9.6211,9.6214,0,9.5071,9.5177,9.5182,9.5254,9.5371,9.536,9.5475,9.5494,9.5532,9.5605,9.557,9.5639,9.5627,9.5696,9.5691,9.5799,9.5817,9.5819,9.5816,9.582,9.5819,9.5841,9.5827,9.581,9.5808,9.5807,9.5806,0,9.4864,9.4991,9.511,9.514,9.5194,9.525,9.5275,9.5317,9.5361,9.542,9.5448,9.5516,9.5553,9.5605,9.5598,9.5536,9.5732,9.5646,9.5733,9.5733,9.5772,9.5769,9.6036,9.5804,9.5803,9.5803,9.5802,0,9.4706,9.4769,9.4941,9.4984,9.5018,9.5096,9.5163,9.523,9.5276,9.5278,9.5324,9.5298,9.5396,9.531,9.5443,9.5365,9.5402,9.5414,9.542,9.5424,9.5327,9.5473,9.5731,9.5756,9.5434,9.5431,9.5428,0,9.4465,9.4641,9.4633,9.4796,9.4876,9.4831,9.4917,9.496,9.497,9.5038,9.5048,9.5125,9.5062,9.5085,9.5152,9.5164,9.5266,9.5151,9.5242,9.5245,9.5227,9.5466,9.5502,9.5676,9.5389,9.5393,9.5396,0,9.4277,9.4345,9.4375,9.4407,9.4463,9.4531,9.4631,9.4705,9.475,9.4803,9.4883,9.4993,9.4948,9.4987,9.4973,9.5043,9.5196,9.4984,9.4985,9.5019,9.5371,9.5404,9.5434,9.5171,9.5176,9.518,9.5365,0,9.4031,9.4121,9.4203,9.4277,9.4329,9.4433,9.4433,9.4487,9.4469,9.4477,9.4597,9.463,9.4704,9.4738,9.472,9.488,9.4852,9.4803,9.4715,9.4873,9.4934,9.4959,9.4625,9.4623,9.4621,9.4619,0,0,9.3795,9.3924,9.3911,9.4008,9.4051,9.4001,9.4111,9.4146,9.4219,9.4248,9.4201,9.4359,9.4388,9.4533,9.4582,9.4613,9.464,9.4585,9.4799,9.4819,9.4838,9.4903,9.4929,9.4615,9.4614,9.4613,9.4613,0,9.3705,9.3741,9.3851,9.3888,9.3942,9.3946,9.3972,9.4016,9.4025,9.4145,9.4098,9.417,9.4297,9.4332,9.4367,9.4569,9.4527,9.4592,9.47,9.4778,9.4801,9.4821,9.489,9.4915,9.4607,9.4608,9.4608,0,9.3517,9.3551,9.3605,9.3703,9.3737,9.3821,9.3731,9.3825,9.3886,9.3822,9.394,9.3958,9.4006,9.4144,9.4206,9.4164,9.4424,9.4343,9.4356,9.4362,9.4436,9.4464,9.4489,9.4163,9.4161,9.416,0,0,9.3438,9.3522,9.3554,9.3683,9.3708,9.3715,9.3759,9.3745,9.3791,9.3809,9.3831,9.3875,9.3948,9.3996,9.4065,9.4218,9.4224,9.4288,9.4309,9.4326,9.4341,9.442,9.4448,9.4154,9.4154,9.4153,0,0,9.3399,9.3442,9.3416,9.3566,9.3613,9.365,9.3728,9.3696,9.3758,9.3745,9.3723,9.3734,9.3863,9.3882,9.3805,9.4032,9.3947,9.3965,9.4015,9.4041,9.4062,9.4053,9.3713,0,0,0,0,0,9.3305,9.3437,9.3413,9.3438,9.356,9.3664,9.3679,9.3665,9.3605,9.3667,9.3679,9.3633,9.3835,9.3767,9.379,9.3875,9.4079,9.4092,9.4105,9.4205,9.4232,9.4256,0,0,0,0,0,0,9.3315,9.3346,9.3409,9.3453,9.348,9.3659,9.3553,9.3553,9.3598,9.3587,9.3632,9.3634,9.3623,9.3753,9.3775,9.3856,9.3706,9.4084,9.4095,9.4105,9.4214,9.4237,9.4256,0,0,0,0,0,9.3323,9.3347,9.3547,9.3451,9.3474,9.3488,9.3548,9.3547,9.3581,9.3601,9.3601,9.3567,9.3625,9.3642,9.3766,9.3846,9.3691,9.3699,9.4091,9.41,9.4108,9.4225,0,0,0,0,0,0,9.3328,9.3346,9.3551,9.3558,9.34,9.3477,9.3489,9.3542,9.3591,9.3594,9.3533,9.3525,9.3629,9.3641,9.3655,9.3844,9.3678,9.3687,9.3692,9.4098,9.4105,9.4111,0,0,0,0,0,0,9.3333,9.3352,9.3555,9.3492,9.3491,9.3468,9.3478,9.3581,9.3592,9.3521,9.3515,9.3529,9.3608,9.3642,9.3652,9.3813,9.3669,9.3677,9.3682,9.3686,9.4104,9.4109,0,0,0,0,0,0,9.3341,9.3357,9.349,9.3489,9.3488,9.356,9.3557,9.3682,9.3541,9.3519,9.3528,9.3522,9.3609,9.3619,9.365,9.3807,9.3811,9.3669,9.3675,9.3678,9.3681,0,0,0,0,0,0,0,9.3347,9.3239,9.3513,9.3487,9.3486,9.3619,9.362,9.3622,9.354,9.3535,9.3529,9.3524,9.3624,9.3632,9.3641,9.3802,0,0,9.3668,9.3672,0,0,0,0,0,0,0,0,9.3231,9.3237,9.3513,9.3515,9.3516,9.3619,9.362,9.3622,9.3539,9.3535,9.353,9.3526,9.3626,9.3633,9.364,0,0,0,0,0,0,0,0,0,0,0,0,0,0,0,9.3513,9.3515,0,9.3619,9.362,9.3621,9.3538,9.3535,9.3531,9.3528,9.3628,9.3634,9.364,0,0,0,0,0,0,0,0,0,0,0,0,0,0,0,0,0,0,0,0,0,0,0,0,0,0,0,0,0,0,0,0,0,0,0,0,0,0,0,0,0,0,0,0,0,0,0,0,0,0,0,0,0,0,0,0,0,0,0,0,0,0,0,0,0,0,0,0,0]}]]]